Temperature
13 13 12 12 12 11 11 11 11 10 11 11 10 10 10 10 10 10 11 10 10 10 10 10 10 10 10 10 10 10 10 10 10 10 10 10 9 9 9 9 8 8 8
13 13 12 12 11 11 11 11 10 10 10 10 10 10 10 10 10 10 10 10 10 10 10 10 9 9 9 9 10 10 10 10 10 10 10 9 9 9 9 8 8 8 8
13 13 12 12 11 11 11 10 10 10 10 10 10 10 10 10 10 10 10 10 10 10 10 10 9 9 9 9 9 10 10 9 9 9 9 9 9 9 8 8 8 8 7
13 13 12 12 11 11 11 10 10 10 10 10 10 10 10 10 10 10 10 10 10 10 10 10 10 9 9 9 9 9 9 9 9 9 9 9 9 8 8 8 7 7 7
13 13 12 12 11 11 10 10 10 10 10 10 9 9 10 10 10 10 9 9 9 10 10 10 10 9 9 9 9 9 9 9 9 9 9 8 8 8 8 7 7 7 6
12 12 12 12 11 11 10 10 10 10 10 10 9 9 9 9 9 9 9 9 9 9 10 10 10 10 9 9 9 9 9 9 9 8 8 8 8 8 7 7 7 6 6
12 12 12 12 11 11 10 10 10 10 10 9 9 9 9 9 9 9 9 9 9 9 9 9 10 10 9 9 9 9 9 9 8 8 8 8 7 7 7 7 6 6 6
12 12 12 12 11 11 10 10 10 10 9 9 9 9 8 9 9 9 9 9 9 9 9 9 9 9 9 9 9 9 9 9 8 8 8 7 7 7 6 6 6 6 5
12 12 12 12 11 11 10 10 10 10 10 9 10 10 9 9 9 9 9 9 9 9 9 9 9 9 9 9 9 9 9 9 8 8 8 7 7 6 6 6 5 5 5
11 11 12 11 11 11 11 10 10 10 10 10 9 10 10 10 10 9 9 9 9 9 9 10 9 9 9 9 9 9 9 8 8 8 7 7 6 6 5 5 5 5 4
11 11 11 11 11 11 10 10 10 10 10 10 10 10 10 10 11 10 9 9 9 9 9 9 9 9 9 9 9 9 8 8 8 7 7 7 6 6 5 5 4 4 4
11 11 11 11 11 11 10 10 10 10 10 10 10 10 10 10 10 10 10 10 9 9 9 9 9 9 9 9 9 8 8 8 7 7 7 7 6 6 5 4 4 4 3
11 11 11 11 11 11 11 10 10 10 10 10 10 10 10 11 11 11 10 10 9 9 9 9 9 9 9 9 8 8 8 8 7 7 7 6 6 5 5 4 4 3 3
11 11 11 11 11 11 11 11 10 10 10 10 10 10 10 10 10 10 10 10 9 9 9 9 9 9 9 8 8 8 8 7 7 7 6 6 6 5 5 4 4 3 3
11 11 11 11 11 10 11 11 10 10 10 10 10 10 10 10 10 10 10 10 10 9 9 9 9 9 9 8 8 8 8 7 7 6 6 6 5 5 4 4 3 3 2
11 10 10 10 11 10 10 11 11 10 10 10 10 10 10 10 10 10 10 10 9 9 9 9 9 9 8 8 8 7 7 7 7 6 6 5 4 4 4 3 3 2 1
10 10 10 10 10 10 10 10 11 11 10 10 10 10 10 10 10 9 9 9 9 9 9 9 8 8 8 8 7 7 7 6 6 5 5 4 4 3 3 2 2 1 1
10 11 11 10 10 10 10 11 11 11 11 11 10 10 10 10 9 9 9 9 9 9 9 8 8 8 8 7 7 7 6 6 5 5 4 4 3 3 2 2 1 1 0
10 10 10 10 10 10 11 11 11 11 11 11 11 10 10 10 10 10 9 9 9 9 8 8 8 7 7 7 7 6 6 6 5 5 4 3 3 2 2 1 1 0 -0
10 10 10 10 10 10 11 11 11 11 11 10 10 10 10 10 10 10 9 9 9 9 8 8 7 7 7 7 6 6 6 5 4 4 3 3 2 2 1 1 0 -0 -1
10 10 10 10 10 10 10 10 10 10 10 10 10 10 10 10 10 10 10 9 9 9 8 8 7 7 6 6 6 5 5 4 4 3 3 2 2 1 1 0 -0 -1 -2
10 10 10 10 10 10 10 10 10 10 10 10 10 10 10 9 9 9 9 9 9 8 8 8 7 7 6 6 5 5 4 4 3 3 2 2 1 1 0 -0 -1 -2 -2
9 9 10 10 10 10 10 10 10 10 10 10 10 10 9 9 9 9 9 8 8 8 8 7 7 7 6 5 5 4 4 3 3 2 2 2 1 1 -0 -1 -1 -2 -3
9 9 10 10 10 10 10 10 9 9 9 10 10 10 9 9 9 9 8 8 8 7 7 7 6 6 5 5 4 4 3 3 2 2 1 1 1 0 -0 -1 -2 -3 -3
9 9 9 10 9 10 10 10 9 9 9 9 9 9 9 9 9 8 8 8 7 7 6 6 6 5 5 4 4 3 3 2 2 1 0 -0 -1 -1 -1 -1 -2 -3 -3
9 9 9 9 9 9 9 9 9 9 9 9 9 9 9 9 8 8 8 7 7 7 6 6 5 5 4 4 3 3 2 2 1 0 -1 -1 -2 -2 -2 -2 -2 -3 -4
Wind_Speed
11 11 10 11 11 12 11 8 7 8 8 8 8 7 6 8 12 13 11 12 11 10 9 9 8 8 7 7 6 6 6 6 6 6 7 7 8 8 9 9 10 11 11
12 11 11 10 10 12 12 9 8 7 6 6 6 6 7 8 12 14 13 12 10 10 9 8 7 7 6 6 5 5 4 4 4 5 5 6 7 7 8 9 10 11 11
14 11 11 11 10 13 12 8 8 7 6 5 5 5 5 7 10 12 13 12 10 9 8 7 7 6 5 5 4 3 3 2 3 3 4 5 6 7 8 9 9 10 11
17 12 11 10 12 12 9 7 7 6 6 5 5 4 4 5 7 10 11 12 11 9 8 7 6 5 4 3 2 2 1 1 2 3 4 6 6 7 8 9 10 11 12
18 13 11 10 13 9 8 9 7 7 7 6 5 4 4 4 4 6 7 9 10 11 10 8 7 5 4 3 2 1 1 2 3 4 5 6 7 8 9 10 11 12 12
17 14 11 13 13 10 8 8 9 7 6 7 6 5 3 3 4 4 5 7 8 10 10 9 8 6 5 4 3 3 3 4 4 5 6 7 8 9 10 11 11 12 13
16 14 12 13 12 11 10 10 8 9 7 7 6 4 2 2 3 3 4 4 5 8 9 9 8 7 6 6 4 4 5 5 6 6 7 8 9 10 11 11 12 13 13
15 15 15 14 13 11 12 11 9 7 6 7 6 6 3 1 2 3 3 4 4 5 6 8 8 7 7 6 6 5 5 6 7 7 8 8 9 10 11 12 12 13 14
16 15 16 15 14 13 12 12 11 9 9 7 7 5 4 4 3 2 4 4 4 4 4 6 7 8 7 7 6 5 5 6 7 7 8 9 10 11 12 12 13 14 14
15 15 16 16 15 12 13 13 11 9 10 9 7 4 3 4 4 3 2 4 5 5 5 5 6 7 7 7 6 5 5 6 7 8 9 9 10 11 12 12 13 14 15
13 15 15 15 15 13 13 13 12 11 9 9 7 4 2 2 3 4 3 3 3 4 4 5 5 6 7 7 6 5 5 5 6 7 8 9 10 11 12 12 13 14 15
11 14 14 14 14 13 14 13 13 13 10 9 7 5 4 4 4 3 3 4 3 3 3 3 4 5 7 6 6 5 5 5 5 6 7 8 9 10 11 12 13 14 15
11 14 14 13 13 13 14 12 12 13 12 11 9 6 5 4 4 3 4 3 3 2 2 2 3 5 6 6 5 4 4 4 4 5 5 7 8 9 10 11 13 14 15
12 15 14 13 13 14 14 13 11 11 11 11 10 8 5 5 4 4 4 4 3 1 2 3 2 4 6 6 5 4 3 3 3 4 5 5 6 8 9 10 12 13 14
13 16 15 14 13 15 15 15 11 12 11 11 10 9 7 5 4 4 4 5 5 3 3 3 2 2 5 5 4 3 3 3 3 3 4 5 6 8 9 10 11 12 13
15 17 16 15 14 15 15 14 12 12 12 11 9 10 8 5 5 4 4 4 4 4 3 2 2 3 4 4 4 3 3 2 2 3 4 5 6 7 8 9 10 11 12
16 18 17 16 15 15 15 14 14 14 14 12 10 11 10 8 6 5 5 4 4 4 3 1 1 2 3 3 2 2 2 2 2 3 4 5 6 7 8 8 9 10 12
16 17 17 17 16 16 15 16 16 15 15 14 13 12 10 9 8 7 6 5 4 4 4 3 1 2 2 2 2 1 0 1 2 3 4 5 6 7 7 8 9 10 11
14 16 17 17 16 16 16 15 15 15 14 13 13 13 11 11 9 7 7 6 5 4 4 4 2 1 1 1 1 1 1 1 2 3 3 5 6 6 7 7 8 9 10
14 15 16 16 16 15 15 14 14 14 13 12 12 12 12 12 11 10 8 7 6 5 4 4 3 2 1 1 1 0 1 1 2 1 3 5 5 6 7 8 8 9 11
13 13 14 15 15 14 14 14 13 14 13 12 11 11 10 12 12 10 8 8 8 6 5 4 3 2 2 2 1 1 1 2 1 1 2 3 3 3 4 6 7 9 11
11 12 13 14 14 12 15 17 14 13 13 13 12 11 10 12 12 12 11 11 10 8 7 5 4 3 3 3 2 1 1 1 2 2 2 3 2 2 3 4 7 9 10
10 11 13 13 14 14 18 18 17 13 13 13 12 11 9 9 12 10 10 11 8 8 8 7 6 4 4 4 4 2 1 0 1 1 2 2 2 3 4 7 8 9 11
10 10 12 13 12 13 19 19 18 12 11 12 12 12 12 11 11 12 10 8 6 5 6 5 5 4 4 4 4 3 2 1 1 2 2 1 2 3 5 6 7 9 12
8 9 11 12 13 13 19 20 17 10 10 11 10 11 12 11 16 17 13 11 9 6 8 11 10 9 9 8 7 4 3 2 1 1 2 1 2 4 4 3 6 10 12
8 9 10 11 12 12 17 20 18 10 10 10 9 10 13 14 18 18 13 12 11 8 7 8 8 8 8 8 7 4 3 2 1 0 1 2 2 3 4 3 4 7 9
Wind_Direction
160 161 160 158 158 154 159 166 164 150 151 156 153 142 133 124 120 119 123 125 128 127 127 127 125 121 113 105 97 89 80 72 63 55 44 36 28 22 16 13 8 3 0
163 164 159 159 157 158 163 166 155 152 149 143 144 139 135 128 125 128 131 127 129 132 133 133 133 131 125 116 106 95 85 70 54 45 32 21 13 8 4 2 359 355 353
164 163 161 160 159 160 162 163 146 147 140 139 143 139 134 130 131 135 140 139 137 136 137 142 141 140 135 125 117 105 87 59 37 21 10 3 357 353 351 350 348 347 345
165 161 158 159 158 159 161 157 150 144 141 142 138 132 119 122 130 138 144 148 151 148 146 148 153 155 153 150 143 125 81 15 353 347 344 342 341 340 339 339 338 337 335
166 161 158 157 157 158 159 158 152 147 147 143 135 127 123 125 135 142 148 154 156 152 153 157 158 162 170 182 189 214 269 299 309 318 324 327 330 330 330 329 329 329 329
167 161 158 157 158 158 158 156 153 149 148 144 137 126 128 131 140 151 155 150 155 159 161 165 167 177 187 196 211 242 268 283 296 307 314 319 323 324 324 325 326 325 325
168 161 159 159 160 162 162 158 153 151 147 139 124 114 92 134 160 166 158 154 165 170 168 170 176 178 187 200 218 245 268 281 290 299 306 310 314 317 319 321 321 321 322
168 166 162 163 163 163 164 163 156 149 153 149 144 136 134 198 248 191 172 172 177 167 172 182 183 179 178 187 210 237 264 279 287 295 302 306 310 313 315 317 319 320 320
171 167 166 163 166 166 169 167 164 156 160 163 166 158 154 182 186 212 195 181 182 182 183 184 185 188 188 186 198 220 248 273 287 295 300 304 307 310 313 316 318 319 319
172 167 169 166 169 169 169 169 167 162 160 169 186 202 169 144 146 162 214 203 195 193 188 186 183 190 193 194 197 209 235 261 283 293 300 305 310 312 315 318 321 322 322
173 171 170 169 171 171 171 169 168 166 168 171 175 174 168 124 138 143 178 202 208 208 193 183 176 183 193 194 189 205 229 253 277 291 301 308 313 316 319 322 324 324 324
175 174 172 172 173 172 172 172 170 171 173 173 172 166 162 159 179 163 165 178 192 212 196 186 178 176 182 187 191 206 226 249 271 286 302 311 316 319 322 325 326 326 326
176 178 175 175 176 173 172 170 170 174 174 175 176 177 178 182 173 160 149 164 162 179 183 198 183 165 169 165 170 192 218 243 263 285 302 310 317 321 323 325 326 327 327
176 177 178 177 178 175 174 172 173 174 175 177 179 176 180 186 173 163 156 151 149 176 189 198 167 152 148 152 168 185 207 238 263 284 299 308 316 320 321 322 324 325 327
175 175 179 178 179 178 176 175 178 176 177 179 179 180 180 179 169 164 151 150 154 177 211 192 162 145 143 149 166 178 194 237 260 284 299 306 314 318 320 323 325 327 329
175 174 178 179 180 180 178 178 177 177 177 179 178 179 180 174 168 162 156 155 153 163 191 185 154 147 142 149 158 164 194 236 249 287 302 307 313 319 323 324 327 330 333
178 178 178 179 181 182 180 180 181 178 179 179 178 180 182 172 169 168 161 162 165 155 178 180 111 115 120 128 127 152 183 210 245 288 301 308 315 322 327 332 332 333 334
182 179 177 180 183 184 182 183 182 180 180 181 180 178 180 174 170 170 168 172 174 165 162 177 152 122 128 139 138 144 204 234 264 288 300 308 318 324 328 332 334 335 337
183 182 180 182 185 185 184 184 182 181 180 179 178 179 177 173 176 172 170 174 174 162 150 156 164 131 112 115 102 42 331 314 292 289 312 318 318 320 321 331 336 337 339
184 185 184 183 184 184 183 181 180 178 177 177 178 178 177 178 178 174 175 175 165 157 147 145 149 139 125 114 109 97 315 304 310 347 344 327 321 326 326 329 332 335 336
183 184 183 182 181 182 183 178 177 176 174 172 171 171 170 169 172 173 172 170 164 160 152 153 157 147 148 143 181 180 275 314 324 13 339 317 315 318 323 326 327 332 336
182 180 182 181 180 182 177 174 172 174 172 170 169 166 164 163 164 161 157 156 160 165 170 166 167 171 183 176 156 147 134 22 288 336 346 306 321 316 312 316 323 332 335
181 182 182 179 180 177 170 171 170 169 170 170 168 165 163 163 155 151 143 136 137 145 156 161 162 177 172 178 156 149 158 194 240 292 359 299 315 316 325 325 329 336 340
182 186 182 179 177 174 167 167 165 164 165 167 167 165 162 159 160 151 143 134 124 120 134 134 143 144 136 135 145 154 157 105 25 6 42 315 311 313 321 319 331 343 342
183 185 181 177 175 172 168 166 163 164 162 162 162 161 162 162 158 148 145 142 131 113 100 110 108 108 108 110 112 108 101 78 28 349 23 16 322 324 315 307 328 337 338
184 181 177 176 173 172 169 166 164 166 161 157 153 157 160 161 159 154 156 154 152 149 135 116 102 96 92 94 96 104 129 116 88 281 360 18 346 350 325 307 318 323 331
Height
1481 1485 1489 1493 1498 1501 1505 1509 1512 1515 1518 1521 1524 1527 1528 1530 1531 1532 1534 1535 1537 1538 1539 1540 1540 1541 1541 1541 1541 1541 1541 1540 1540 1539 1538 1537 1536 1535 1534 1532 1531 1529 1527
1477 1481 1485 1490 1495 1499 1503 1507 1511 1514 1517 1520 1523 1526 1528 1530 1531 1532 1533 1535 1536 1537 1538 1539 1540 1541 1541 1541 1541 1541 1540 1540 1539 1539 1538 1537 1536 1534 1533 1531 1530 1528 1526
1472 1477 1482 1486 1491 1496 1501 1505 1509 1513 1516 1519 1522 1525 1527 1529 1530 1531 1533 1534 1536 1537 1538 1539 1540 1540 1541 1541 1540 1540 1540 1539 1539 1538 1537 1536 1534 1533 1532 1530 1528 1526 1524
1468 1473 1478 1482 1487 1493 1498 1502 1506 1510 1514 1517 1520 1523 1526 1528 1529 1531 1532 1533 1535 1536 1537 1538 1539 1540 1540 1540 1540 1539 1539 1538 1538 1537 1536 1534 1533 1532 1530 1528 1526 1524 1522
1463 1468 1474 1479 1484 1489 1494 1499 1504 1508 1511 1515 1518 1522 1524 1527 1528 1530 1531 1533 1534 1535 1536 1537 1538 1539 1539 1539 1539 1538 1538 1537 1536 1535 1534 1533 1531 1530 1528 1526 1524 1522 1520
1457 1463 1469 1475 1480 1485 1491 1496 1500 1505 1509 1513 1516 1520 1523 1526 1527 1529 1530 1531 1533 1534 1535 1536 1536 1537 1537 1537 1537 1537 1536 1536 1535 1533 1532 1531 1529 1527 1526 1524 1522 1520 1517
1452 1458 1464 1470 1476 1481 1486 1492 1497 1502 1506 1510 1514 1518 1522 1524 1526 1527 1529 1530 1531 1532 1533 1534 1535 1535 1536 1536 1536 1535 1535 1534 1533 1531 1530 1528 1527 1525 1523 1521 1519 1517 1514
1447 1452 1458 1464 1471 1477 1482 1488 1493 1498 1503 1507 1510 1514 1519 1523 1524 1525 1526 1528 1529 1530 1531 1532 1533 1533 1533 1533 1533 1533 1532 1532 1530 1529 1527 1526 1524 1522 1520 1518 1516 1513 1511
1443 1448 1453 1459 1466 1472 1477 1483 1488 1493 1497 1503 1507 1510 1514 1516 1520 1522 1523 1525 1527 1528 1529 1530 1531 1531 1531 1531 1531 1531 1530 1529 1528 1526 1525 1523 1521 1519 1517 1515 1512 1510 1507
1438 1444 1449 1455 1461 1467 1473 1479 1484 1489 1493 1498 1503 1507 1510 1511 1515 1518 1521 1522 1524 1525 1526 1527 1528 1528 1529 1528 1528 1528 1527 1526 1525 1523 1522 1520 1518 1516 1514 1511 1509 1506 1503
1435 1440 1445 1451 1457 1463 1468 1474 1480 1485 1489 1494 1498 1502 1506 1509 1511 1512 1515 1518 1521 1522 1523 1524 1525 1526 1526 1526 1525 1525 1524 1523 1522 1520 1518 1516 1514 1512 1510 1507 1505 1502 1499
1431 1436 1441 1447 1452 1458 1464 1469 1475 1480 1485 1490 1494 1498 1502 1505 1507 1509 1511 1514 1517 1519 1520 1521 1522 1522 1523 1523 1522 1522 1521 1520 1518 1516 1514 1513 1510 1508 1505 1503 1500 1498 1495
1425 1431 1437 1442 1448 1454 1460 1465 1471 1476 1481 1486 1490 1495 1499 1502 1505 1507 1509 1511 1513 1516 1517 1518 1518 1519 1519 1519 1519 1518 1517 1516 1514 1512 1511 1508 1506 1504 1501 1498 1496 1493 1490
1420 1427 1432 1438 1444 1450 1456 1461 1467 1472 1477 1482 1487 1491 1495 1498 1502 1504 1506 1508 1510 1512 1514 1514 1515 1515 1516 1516 1516 1515 1514 1512 1510 1508 1506 1504 1502 1499 1497 1494 1491 1488 1485
1415 1422 1428 1434 1440 1445 1451 1457 1462 1468 1473 1478 1482 1487 1491 1494 1498 1501 1503 1505 1507 1508 1510 1510 1511 1512 1512 1513 1512 1511 1510 1508 1507 1505 1502 1500 1498 1495 1493 1490 1487 1484 1481
1410 1416 1423 1429 1435 1441 1446 1452 1457 1463 1469 1473 1478 1483 1487 1490 1494 1497 1499 1501 1503 1505 1506 1507 1507 1508 1509 1509 1508 1507 1506 1504 1503 1501 1499 1496 1494 1492 1489 1486 1483 1480 1477
1404 1410 1417 1423 1429 1436 1441 1447 1452 1458 1463 1469 1473 1478 1482 1486 1489 1492 1495 1497 1499 1501 1502 1504 1505 1505 1505 1505 1504 1503 1502 1500 1499 1497 1495 1493 1490 1488 1485 1482 1479 1476 1473
1399 1405 1412 1418 1424 1430 1436 1442 1447 1452 1458 1463 1468 1473 1477 1481 1485 1488 1491 1493 1495 1497 1499 1500 1501 1501 1501 1501 1500 1499 1498 1497 1495 1493 1491 1489 1487 1484 1481 1479 1476 1472 1469
1394 1400 1406 1413 1419 1425 1431 1436 1442 1447 1452 1458 1463 1468 1472 1476 1480 1483 1486 1489 1491 1493 1495 1496 1496 1497 1497 1497 1496 1495 1494 1493 1491 1490 1488 1486 1483 1481 1478 1475 1472 1469 1466
1390 1395 1401 1407 1413 1419 1425 1431 1437 1442 1448 1453 1458 1463 1467 1471 1475 1478 1482 1484 1487 1489 1490 1491 1492 1493 1493 1492 1492 1491 1490 1489 1488 1486 1484 1482 1480 1477 1474 1471 1469 1465 1462
1385 1391 1396 1403 1409 1414 1420 1425 1431 1437 1443 1448 1453 1458 1463 1467 1471 1474 1477 1479 1482 1484 1485 1486 1488 1488 1488 1488 1488 1487 1486 1485 1484 1482 1480 1478 1476 1473 1471 1468 1465 1462 1459
1380 1386 1392 1397 1403 1408 1414 1420 1427 1432 1438 1443 1448 1453 1458 1463 1467 1470 1473 1475 1478 1480 1481 1482 1483 1484 1484 1484 1484 1484 1483 1481 1480 1479 1477 1475 1473 1470 1467 1464 1462 1459 1456
1377 1382 1387 1392 1398 1404 1410 1416 1422 1428 1433 1438 1444 1449 1453 1458 1461 1465 1468 1471 1473 1475 1477 1479 1479 1480 1481 1481 1481 1480 1480 1479 1477 1475 1473 1471 1469 1467 1464 1461 1459 1456 1453
1372 1377 1382 1388 1394 1399 1406 1412 1418 1423 1429 1434 1439 1444 1449 1453 1457 1460 1464 1466 1469 1471 1473 1474 1476 1477 1477 1478 1477 1477 1477 1476 1474 1472 1470 1468 1466 1463 1461 1458 1456 1453 1449
1368 1373 1378 1384 1389 1395 1401 1407 1413 1418 1424 1429 1435 1440 1444 1448 1452 1456 1459 1462 1464 1467 1469 1471 1472 1473 1474 1474 1474 1474 1473 1472 1471 1469 1468 1466 1463 1460 1458 1456 1453 1450 1446
1364 1369 1374 1379 1385 1390 1397 1402 1408 1413 1419 1424 1430 1435 1440 1444 1447 1451 1454 1457 1460 1462 1465 1467 1468 1470 1470 1471 1471 1471 1470 1469 1468 1467 1465 1463 1460 1458 1454 1452 1450 1447 1443